Wind_Speed
21 23 24 26 26 27 29 29 29 27 23 18 16 14 11 7 6 6 7 8 9 10 11 12 14 16 18 19 20 21 21 21 21 19 18 19 19 18 18 17 17 16 15 14 13 12 11 8 7 7 7 7 7 7 7 6 5 4 3 2 2 2 1 1 1 2 2 2 2 2 2 1 0 1 1 1 1 1 1 2 2 1 2 2 2
22 24 25 26 27 28 29 29 29 27 23 18 15 14 10 7 6 6 7 8 9 10 11 12 14 16 18 19 20 21 21 21 21 19 18 18 18 18 18 18 17 16 15 14 13 12 11 9 8 7 7 7 7 7 8 7 6 5 4 3 2 2 2 2 2 2 3 3 3 3 3 2 1 1 2 2 1 1 1 1 1 1 1 1 1
24 25 26 27 28 29 29 29 30 28 24 18 15 13 9 7 6 6 7 8 9 10 11 12 13 16 17 19 20 21 21 21 21 19 18 18 18 18 18 18 17 16 15 15 14 12 11 10 9 8 7 7 7 7 8 8 7 6 4 3 2 2 2 3 3 3 3 4 4 4 4 3 2 2 2 2 2 1 1 2 2 1 1 1 0
27 27 28 29 29 29 30 30 30 28 24 19 15 13 9 7 7 7 8 8 9 10 11 12 13 15 17 19 20 21 21 21 21 19 18 18 17 17 18 18 17 16 16 15 14 13 11 10 9 9 8 8 7 7 8 8 8 7 5 4 2 2 2 3 3 3 4 4 4 4 4 4 3 2 2 2 2 2 2 3 3 2 1 0 0
30 30 30 30 30 31 31 30 30 28 24 19 15 12 9 8 7 7 8 8 9 10 11 12 13 15 17 19 19 20 21 21 20 19 19 18 17 17 17 17 17 17 16 16 14 13 12 11 10 9 9 9 8 8 8 8 8 7 6 5 3 2 2 3 3 3 4 4 4 4 4 4 4 3 2 2 2 2 2 2 2 2 1 0 1
33 33 33 32 33 32 32 31 29 28 24 18 14 12 10 9 8 8 8 9 9 10 11 12 13 14 16 18 19 20 21 21 20 19 18 18 16 16 17 17 17 17 16 15 14 13 12 11 10 10 10 10 9 9 9 9 8 7 7 5 4 3 3 3 3 4 4 4 4 4 3 3 4 3 2 2 1 1 2 2 2 1 1 0 1
36 36 35 35 34 33 33 31 29 28 23 18 14 12 10 9 9 8 9 9 9 10 11 11 12 14 16 17 18 20 21 21 20 19 18 17 16 16 17 17 17 17 16 15 14 13 12 12 11 11 10 10 10 10 10 10 8 7 7 6 5 4 4 4 4 4 4 4 3 3 3 3 4 3 2 2 1 1 1 2 2 2 1 1 1
38 37 37 36 35 34 33 31 28 26 22 17 14 12 10 10 9 9 9 9 9 10 11 11 12 13 15 17 18 19 20 21 20 19 18 17 15 16 17 17 17 17 16 15 14 13 13 12 12 11 11 11 11 11 11 10 9 8 7 7 6 5 5 5 5 5 5 4 3 3 3 3 4 3 3 3 2 2 2 2 2 2 2 2 2
39 38 37 36 34 34 32 30 27 24 20 16 14 12 11 10 10 10 10 9 9 10 11 11 12 13 14 16 17 19 20 21 20 19 18 16 15 16 17 17 17 17 16 15 14 13 13 13 12 12 12 11 11 12 11 11 10 9 8 8 7 6 6 6 5 6 5 5 4 4 4 4 4 4 4 3 2 2 2 2 2 2 3 3 3
37 36 36 34 33 32 30 28 25 22 18 16 14 12 11 10 10 10 10 9 10 10 10 11 11 12 14 15 17 18 20 20 20 19 17 16 15 16 17 17 17 17 17 16 15 14 14 13 13 13 12 11 11 12 12 11 11 9 9 8 7 7 7 6 6 6 6 6 5 5 5 5 4 4 4 3 3 2 2 2 2 2 3 3 3
35 34 33 31 31 29 27 25 22 20 17 15 14 12 11 10 11 11 10 10 10 11 10 11 11 11 13 14 16 18 19 20 19 18 17 15 15 16 16 17 17 17 17 16 16 15 15 14 14 13 13 12 11 12 12 12 11 10 9 8 8 8 8 7 7 7 7 6 6 6 5 5 5 4 4 3 3 2 2 2 2 2 3 3 4
32 31 29 28 27 25 24 22 20 18 16 15 14 12 11 11 11 11 10 10 10 10 10 11 10 11 12 13 15 18 19 20 19 18 16 15 15 15 16 16 17 17 17 17 16 16 16 15 14 13 13 12 11 12 13 13 12 10 9 9 8 8 9 8 8 8 8 7 7 6 6 5 5 5 4 4 3 3 2 2 3 3 3 3 4
28 27 26 24 23 22 21 19 19 17 16 15 13 12 11 11 11 11 11 10 11 10 10 10 10 10 11 13 15 17 19 19 19 18 16 15 15 15 15 16 16 17 17 17 17 17 17 16 15 14 13 12 13 14 14 14 12 10 9 9 9 9 9 9 8 9 8 8 8 7 7 6 6 5 5 4 4 3 3 3 3 4 4 4 4
24 24 22 21 20 19 19 18 18 16 15 14 13 12 11 11 11 11 11 10 11 10 10 10 10 10 10 12 14 17 18 19 18 17 15 15 15 14 15 15 15 16 17 17 18 18 17 17 16 15 14 14 14 16 16 15 13 11 10 10 10 10 10 9 9 9 9 9 9 8 8 7 7 6 5 5 5 4 4 4 4 4 5 5 5
21 21 19 19 18 18 17 18 17 15 15 14 12 11 11 12 12 11 11 11 11 10 10 10 10 9 9 11 13 16 18 18 18 17 15 15 14 14 14 13 14 15 16 17 17 18 18 17 17 16 15 15 16 16 16 15 14 12 11 11 11 11 10 10 9 9 9 10 9 9 8 8 8 7 6 6 6 5 5 5 5 5 5 6 6
20 19 18 17 17 16 17 17 16 15 14 13 12 11 12 12 12 12 11 11 11 10 10 9 9 9 9 10 13 15 17 18 18 16 15 14 13 13 13 12 13 14 15 16 17 17 17 17 17 17 16 16 16 17 16 15 14 13 12 12 12 12 12 11 10 10 10 10 10 10 9 9 9 8 8 8 7 7 6 6 6 6 6 7 7
19 18 18 16 16 16 17 17 15 14 13 13 12 12 13 12 13 12 12 11 10 10 9 9 9 9 9 10 12 14 16 17 17 16 14 13 12 13 12 12 12 13 14 15 15 16 16 16 16 16 17 17 16 16 16 16 14 14 13 13 13 13 13 12 12 11 10 10 10 10 10 10 10 9 9 9 9 9 8 8 8 8 8 8 8
18 17 17 16 16 17 17 17 15 14 13 13 13 13 13 13 13 13 12 11 10 9 8 9 8 9 9 9 11 13 15 16 16 15 13 12 11 12 12 12 12 13 13 14 15 15 16 16 16 16 16 16 16 16 16 16 15 14 14 14 14 13 13 13 13 13 12 12 11 11 11 10 10 10 10 10 10 10 10 10 10 10 10 10 10
17 17 16 16 16 17 18 17 15 14 13 14 14 14 14 14 13 13 12 10 10 9 8 8 8 9 9 9 11 13 15 15 15 14 12 11 10 11 11 11 12 13 13 14 14 15 16 16 16 16 16 16 16 16 16 16 15 15 14 14 15 15 14 14 14 14 14 13 13 12 12 11 11 11 11 10 11 11 11 11 11 11 11 12 12
17 17 16 17 17 18 18 16 14 14 14 15 15 14 14 14 14 13 11 10 9 8 8 8 8 9 9 9 10 12 14 15 14 12 10 9 9 9 10 11 12 13 14 14 15 15 16 17 17 17 16 16 17 17 16 16 16 16 16 16 16 16 15 15 15 15 15 15 14 14 13 12 11 11 11 11 11 11 11 11 11 11 12 12 12
17 17 17 18 18 19 17 15 14 14 14 14 14 15 15 14 14 13 11 10 8 8 8 9 9 9 9 9 9 11 13 14 13 11 9 8 8 8 9 10 12 13 14 15 16 16 17 17 17 17 17 16 16 17 17 17 17 16 16 16 17 17 17 16 16 16 16 16 16 16 15 14 12 12 11 11 10 10 10 10 11 11 12 12 12
17 18 18 18 18 18 16 15 14 14 14 14 14 14 15 15 14 13 11 9 8 8 9 9 9 9 9 9 9 10 12 12 12 10 8 7 7 7 8 9 11 12 13 14 16 17 18 18 17 17 17 16 16 16 17 17 17 17 17 16 16 17 18 18 17 17 16 16 16 17 16 16 14 13 12 11 10 10 10 10 11 11 11 12 12
18 18 19 19 18 17 16 15 14 14 14 14 14 15 15 15 14 13 11 9 8 9 9 9 9 10 9 9 10 10 11 11 11 9 8 6 6 7 8 9 10 11 12 14 16 17 18 18 18 18 17 16 16 16 16 17 17 17 17 17 16 16 18 19 19 19 18 17 17 17 17 17 16 15 13 12 11 10 10 10 11 11 11 11 11
18 19 20 19 18 17 16 16 15 14 14 14 15 15 15 15 14 13 11 10 10 10 9 9 9 10 9 9 10 10 11 11 10 8 7 6 6 7 8 9 10 10 11 12 14 16 17 19 19 19 18 17 16 16 16 17 18 17 18 18 18 17 18 18 19 20 19 18 18 18 17 17 17 16 15 14 12 11 11 11 11 12 12 11 11
19 19 20 20 19 18 17 16 15 15 13 14 15 16 16 15 14 13 12 11 10 10 9 10 10 10 10 9 10 10 11 11 9 8 7 6 7 8 8 9 9 9 10 11 13 14 16 18 20 20 20 19 17 17 17 18 18 18 18 18 18 18 18 19 20 20 19 18 18 19 18 18 17 16 16 15 14 12 12 11 12 12 12 12 11
19 19 20 20 20 19 18 17 16 15 14 14 15 15 16 15 14 13 13 12 11 11 10 10 10 10 10 10 10 10 11 10 10 8 7 6 7 8 8 8 9 10 10 11 12 14 15 17 19 21 21 20 19 19 19 19 19 19 19 19 19 18 18 19 20 20 20 20 20 20 19 18 17 17 16 15 15 14 13 12 12 13 13 12 11
19 20 20 20 21 20 19 17 16 15 14 15 15 15 15 15 14 13 13 12 12 11 10 10 11 10 10 11 11 11 11 10 10 8 7 7 7 8 8 9 10 10 11 11 12 13 14 16 19 20 20 20 21 21 21 20 20 20 20 20 20 20 19 18 19 20 22 22 21 21 19 19 18 17 16 15 15 15 14 13 13 13 13 12 12
20 20 21 21 21 20 19 18 16 15 15 15 16 16 15 15 15 14 14 13 13 12 11 11 11 11 11 11 12 12 11 11 10 9 8 8 8 8 9 9 10 11 11 12 12 13 14 15 18 18 18 19 21 21 22 22 22 21 21 22 22 22 20 19 18 19 23 23 22 21 19 19 18 17 17 16 15 15 15 14 13 13 13 13 12
21 21 21 21 21 20 19 18 17 16 16 16 16 16 16 16 16 15 15 14 14 13 12 13 12 12 12 12 13 13 12 11 11 10 10 10 10 10 10 10 11 11 11 12 12 13 14 15 16 16 16 18 20 21 22 22 23 23 22 22 23 23 22 20 18 18 20 23 22 21 20 19 18 18 17 16 15 15 15 15 14 13 13 12 11
21 22 21 21 22 21 20 19 18 17 16 17 17 17 17 17 17 17 16 16 15 14 14 14 13 13 13 13 13 13 12 12 11 11 11 11 12 12 12 12 12 12 12 12 12 13 14 14 14 14 16 18 19 21 22 23 23 23 23 23 23 23 23 22 20 18 18 20 21 21 21 20 18 18 17 16 15 15 15 15 14 13 13 12 11
22 22 22 22 22 21 21 20 18 17 17 17 18 19 18 18 19 19 18 17 16 16 16 15 14 14 14 14 14 13 12 12 12 12 12 12 13 13 13 14 14 13 13 13 13 13 14 14 14 13 16 18 20 21 23 23 23 23 23 23 22 23 24 23 21 20 18 19 20 21 21 21 19 18 18 17 15 14 14 15 14 13 12 12 11
23 23 23 23 23 22 22 20 19 18 18 18 19 20 20 20 20 20 19 18 18 18 17 16 15 15 15 15 14 13 12 12 12 12 12 13 14 14 15 15 15 15 15 14 13 14 15 15 14 14 16 18 19 21 22 23 24 24 23 22 22 22 23 24 23 22 20 19 21 22 22 21 19 18 18 18 16 15 14 15 14 13 12 12 11
23 23 24 25 24 24 22 21 20 19 20 19 20 21 22 22 21 21 20 20 19 18 17 16 16 16 15 15 14 13 12 12 12 12 12 13 14 15 15 16 17 17 17 15 15 15 15 16 16 16 16 18 19 20 21 22 23 23 23 22 22 22 23 24 24 23 21 20 21 22 22 21 20 19 19 19 17 15 15 15 14 13 12 12 11
24 24 25 26 25 24 23 22 21 21 21 21 21 22 23 23 22 22 22 21 20 19 18 18 17 16 16 15 14 13 12 11 11 12 12 13 14 15 15 16 17 17 17 17 16 16 16 17 17 17 17 17 19 19 20 22 22 22 23 23 22 23 23 23 24 24 22 21 21 23 23 21 21 20 18 18 18 17 16 16 16 15 13 12 11
24 25 26 26 25 25 24 23 22 22 22 22 22 23 23 24 24 24 23 22 21 20 19 18 17 16 16 15 13 12 12 11 11 11 12 13 14 14 15 15 16 16 17 17 18 18 17 17 18 18 18 18 18 20 20 21 23 23 23 24 23 23 24 23 23 24 23 22 22 22 23 23 22 20 19 18 18 19 19 18 18 17 15 13 12
26 27 26 26 25 25 24 24 24 24 23 23 22 23 24 24 25 24 23 22 21 20 20 19 17 17 16 15 13 12 12 11 11 11 12 12 13 14 15 15 15 16 16 17 18 18 19 19 18 19 19 19 19 20 20 21 22 23 24 24 24 24 24 24 24 24 24 24 23 23 24 24 23 22 21 20 19 21 21 20 20 19 17 16 15
27 27 27 27 26 25 25 25 25 25 24 23 22 23 24 25 25 25 24 23 22 21 20 19 17 16 15 14 14 13 12 12 11 11 11 12 13 13 14 15 16 16 17 17 18 19 19 20 20 19 20 20 20 20 21 21 22 23 24 24 25 24 24 24 24 24 24 25 24 23 24 25 25 24 23 21 20 21 22 21 22 22 21 19 17
27 27 27 27 26 26 27 27 27 26 24 23 23 23 24 25 25 25 24 23 22 22 20 18 17 16 15 14 14 13 13 12 11 11 12 12 12 13 14 15 16 17 18 18 19 19 20 20 20 20 21 21 22 23 22 22 23 23 24 25 26 26 25 25 25 24 25 26 26 25 25 25 25 25 25 24 22 21 22 23 23 24 24 22 19
27 27 27 27 28 28 28 28 27 26 25 24 24 24 24 24 24 24 24 23 23 21 19 18 17 16 16 15 15 14 13 12 12 12 12 12 12 12 13 15 16 17 18 18 19 19 19 20 20 20 20 21 23 24 24 24 24 24 25 26 27 27 27 27 26 26 25 26 26 26 26 25 25 25 25 26 24 22 22 24 25 25 25 24 21
27 27 28 28 28 29 29 29 28 27 27 27 26 26 25 24 23 23 24 24 22 20 19 18 18 17 16 16 15 14 13 13 13 12 12 12 12 12 13 15 16 17 18 19 19 19 19 20 20 20 20 21 22 23 25 26 27 26 26 26 27 28 29 29 28 28 27 26 26 27 27 27 27 26 26 26 26 25 24 23 25 26 26 26 24
28 29 30 29 29 30 30 30 29 29 28 29 30 28 27 25 23 23 23 22 21 20 20 19 18 17 17 16 15 14 14 13 13 13 13 13 12 12 13 15 16 18 18 19 19 19 19 19 20 20 20 21 22 23 25 26 28 28 28 28 28 29 30 30 30 29 28 28 27 27 27 27 28 27 26 27 27 27 26 24 24 26 27 27 26
29 30 30 29 30 31 31 31 31 31 29 28 29 28 27 26 24 24 22 20 21 21 20 19 18 18 17 16 15 14 14 14 14 14 14 13 13 13 14 15 17 18 19 19 19 19 19 20 20 20 20 21 22 23 25 26 28 29 30 30 30 30 30 31 31 30 30 30 29 28 28 27 28 28 27 28 28 28 27 26 25 26 27 27 26
32 30 29 29 30 31 32 33 33 31 29 27 25 25 25 25 24 22 21 20 21 21 20 19 18 18 18 16 16 15 14 14 15 14 14 13 14 14 15 16 17 18 19 20 20 19 19 19 20 20 21 22 23 23 24 26 28 29 30 30 31 31 32 32 31 31 31 32 30 29 28 28 28 28 28 28 29 29 28 27 26 25 26 27 26
33 28 27 28 28 30 31 31 31 30 29 25 23 23 22 23 23 20 20 21 21 20 20 20 19 19 18 16 16 15 14 15 14 14 14 14 14 15 16 16 17 18 19 20 20 20 19 19 19 20 21 22 23 24 24 25 27 29 29 30 32 32 33 34 33 31 31 32 31 31 31 30 29 28 28 29 30 30 29 28 26 25 26 27 27
29 25 25 26 26 27 28 28 29 28 27 26 23 22 21 22 21 19 19 20 20 20 20 20 19 18 17 16 16 15 14 14 14 14 14 14 15 16 17 17 17 18 19 19 20 20 20 19 19 19 20 22 23 24 24 25 26 29 30 31 32 33 33 34 34 33 32 32 32 32 32 32 31 30 30 30 30 30 29 28 28 27 27 27 28
26 24 23 24 26 26 27 28 28 27 27 27 24 23 22 21 20 18 19 20 20 21 20 19 19 17 17 16 15 14 14 14 14 15 15 15 15 16 17 17 17 18 18 19 20 20 21 20 20 20 20 21 23 24 26 26 26 28 30 31 33 33 34 34 34 34 34 33 33 32 32 33 32 31 31 29 29 29 30 29 29 30 29 28 28
26 24 22 26 28 27 26 27 29 29 29 28 26 24 23 21 18 17 19 20 20 21 20 19 18 17 17 15 14 14 14 14 15 15 16 16 17 17 18 18 18 18 18 19 20 20 21 21 20 20 20 21 22 24 26 27 27 28 30 31 32 33 34 34 34 34 34 34 34 34 34 33 33 33 32 30 29 29 30 31 31 31 31 30 29
26 24 26 29 29 26 25 26 27 28 27 26 26 25 24 21 18 17 19 20 20 20 19 18 18 17 16 14 13 13 14 14 15 16 17 17 18 18 18 18 18 18 18 19 20 20 21 21 21 21 21 21 22 23 25 27 28 29 30 31 32 33 34 34 34 34 34 34 35 37 37 35 34 34 33 32 32 30 30 31 31 32 32 32 30
30 28 29 30 28 25 24 26 26 26 25 26 27 27 26 23 18 18 19 19 20 19 19 18 17 16 14 13 13 13 14 15 16 17 18 18 19 19 19 19 19 19 19 19 19 20 21 21 21 21 21 22 23 24 25 27 28 30 31 32 32 33 34 34 34 35 34 34 35 37 37 36 35 34 33 33 33 31 30 30 31 33 32 32 31
34 32 27 26 25 23 24 26 25 26 26 25 25 25 25 21 17 18 19 19 19 18 18 17 16 15 13 13 13 14 15 16 17 18 19 20 20 20 20 19 19 19 19 19 19 19 20 21 21 21 21 22 23 24 25 27 29 30 32 32 33 33 34 34 34 34 34 34 35 35 35 36 35 34 33 33 32 31 31 30 31 34 34 32 31
33 28 23 23 24 23 24 25 25 26 25 23 22 22 21 17 15 16 17 17 18 17 16 15 14 14 13 13 14 14 16 16 18 18 19 20 20 20 21 20 20 20 19 19 19 19 20 20 20 20 21 22 22 24 25 27 28 30 32 33 33 33 34 34 34 34 33 33 35 33 32 33 33 33 33 32 33 33 32 31 31 34 34 33 33
Wind_Direction
309 311 312 314 315 319 320 322 328 329 329 326 320 320 313 295 285 288 299 309 317 325 332 337 344 348 351 354 355 355 355 356 356 355 354 353 352 353 354 354 351 348 344 341 338 337 339 337 330 327 329 336 343 344 345 344 341 336 337 333 324 318 307 300 292 280 267 269 271 267 275 279 266 216 235 234 184 165 133 107 107 91 70 54 42
307 308 310 310 312 315 316 319 325 326 326 323 317 316 306 286 279 283 294 304 314 321 327 334 341 346 349 352 354 354 354 354 355 355 355 353 353 353 354 353 351 348 345 342 338 337 338 336 330 324 323 326 332 338 340 340 336 334 333 331 325 318 307 300 292 289 281 278 280 277 275 274 264 236 240 254 254 212 188 151 145 126 100 83 81
304 305 306 306 308 311 313 316 321 323 323 319 313 311 299 280 276 280 291 301 311 317 323 332 339 344 348 351 352 353 353 354 354 355 355 354 353 353 353 352 351 349 347 344 340 337 337 336 331 324 321 318 322 330 334 333 332 332 330 329 320 311 305 303 300 298 295 291 287 286 285 283 272 250 240 253 263 231 199 183 176 158 136 111 106
300 301 301 302 304 307 309 313 318 320 320 316 309 306 295 279 276 278 288 298 307 313 320 330 337 342 346 349 351 351 352 354 355 355 354 354 353 352 351 352 350 349 348 347 343 339 337 335 333 329 324 320 319 322 325 326 328 330 327 322 305 294 288 290 298 300 298 296 294 295 295 291 276 256 243 241 248 233 207 191 186 172 159 137 27
296 297 298 299 301 304 306 310 314 316 317 312 303 301 291 279 275 276 284 294 303 310 318 328 335 340 345 347 349 349 352 354 355 355 354 353 352 351 350 351 350 349 349 348 346 342 337 334 334 333 330 327 323 319 318 320 325 328 325 318 305 286 269 272 279 285 288 290 294 293 292 294 285 267 252 240 237 235 224 207 194 179 168 103 6
293 294 295 296 298 301 303 306 310 312 314 307 298 295 286 278 274 274 282 291 300 309 315 325 333 338 343 345 348 349 351 354 355 355 353 353 351 350 349 351 350 348 348 349 348 344 340 335 333 334 334 331 327 323 320 320 322 323 322 316 306 290 272 266 264 270 276 281 282 281 285 294 289 275 262 243 233 238 240 233 224 213 216 3 4
289 291 292 293 295 297 299 303 306 308 309 300 292 289 282 276 273 275 281 289 298 306 312 321 329 336 341 344 346 348 351 353 354 354 353 352 350 349 349 350 350 347 348 348 348 346 344 340 337 335 334 332 331 329 325 322 321 319 319 315 308 296 280 267 262 262 270 283 283 281 288 288 284 280 269 253 239 243 250 248 249 252 263 289 349
286 288 289 290 292 293 295 299 302 305 304 293 285 283 279 276 274 275 279 286 296 302 309 318 326 333 340 343 345 348 351 352 353 353 352 352 351 350 349 351 350 348 347 346 346 346 346 345 343 338 334 332 333 333 330 325 322 320 319 316 310 299 284 272 267 265 271 285 289 288 293 292 290 286 277 268 259 252 247 244 250 259 266 280 321
284 286 286 288 289 290 293 296 298 300 297 286 278 277 275 274 274 272 277 284 292 299 307 315 323 332 338 342 344 347 350 351 352 352 352 352 352 351 351 353 352 349 347 345 344 346 346 346 346 343 337 332 332 335 334 330 324 320 317 314 311 302 289 279 272 272 277 283 289 298 304 307 306 298 291 282 271 261 253 248 251 265 274 287 306
283 284 285 286 287 288 290 292 294 294 290 280 273 272 272 272 272 270 275 282 291 297 305 313 320 330 337 340 342 346 349 350 351 352 352 353 353 353 353 355 354 352 349 345 344 345 346 345 344 343 340 334 332 335 337 334 326 320 314 311 308 304 296 288 281 276 278 280 287 299 306 313 316 313 302 295 285 273 267 265 261 271 280 290 300
281 282 283 284 284 286 288 289 289 288 283 275 271 269 270 272 270 270 274 280 287 294 303 311 317 327 335 339 340 344 348 349 350 351 351 353 354 355 355 357 357 355 352 348 347 347 347 346 344 343 342 338 334 336 339 337 328 319 311 307 305 304 300 294 288 282 279 278 282 287 295 305 311 312 307 303 302 300 293 288 280 278 283 291 298
280 281 281 281 283 284 283 284 283 282 276 271 269 266 267 269 269 269 273 278 284 292 301 307 314 325 333 336 338 343 346 347 349 350 351 354 355 357 358 359 0 359 357 353 351 350 350 349 346 344 345 343 339 337 337 336 329 319 308 302 300 301 301 298 293 288 282 277 276 277 281 290 297 301 304 305 307 310 307 300 294 290 288 291 297
280 279 278 279 280 279 279 279 278 277 272 270 268 263 265 267 267 267 270 276 281 289 298 305 311 321 331 333 337 342 345 346 348 350 351 353 356 359 359 0 3 4 1 357 355 354 353 351 349 346 345 344 341 338 336 335 330 321 309 301 299 300 300 300 297 292 287 279 276 276 276 279 284 292 298 301 301 304 305 303 299 297 294 293 295
278 275 276 276 274 274 274 273 275 273 268 268 265 261 262 265 265 265 268 272 278 288 295 302 308 318 327 330 336 340 344 346 347 349 351 353 356 360 360 2 6 8 5 0 358 357 355 353 351 349 345 341 338 337 336 335 331 324 312 302 296 294 296 296 295 292 288 281 278 279 279 279 279 286 289 290 292 295 297 299 297 296 297 296 296
272 271 271 269 269 269 267 269 272 269 266 265 262 260 261 263 263 263 265 269 276 286 292 298 303 313 321 327 334 339 343 345 347 349 351 353 356 360 1 3 8 10 8 2 359 357 356 356 354 351 346 340 336 336 336 334 331 325 315 305 297 292 290 291 291 291 289 284 281 281 281 281 281 282 282 282 283 284 287 290 292 293 294 295 296
266 266 265 263 264 262 262 268 268 265 263 262 260 259 258 260 260 260 262 267 276 283 288 294 300 308 316 325 333 339 343 344 347 349 351 355 357 360 360 2 9 12 9 4 1 357 357 357 356 353 349 343 339 337 335 334 331 327 320 311 303 297 292 290 290 291 290 288 284 282 282 282 283 283 282 282 281 280 281 283 284 287 290 292 294
263 263 262 260 256 254 259 265 264 261 260 260 258 256 256 257 257 257 260 266 273 279 285 290 295 303 311 322 332 338 342 344 346 350 353 356 360 359 358 1 6 11 8 4 1 357 356 357 357 356 352 348 343 340 337 335 332 328 324 318 311 304 297 293 291 291 290 289 287 285 284 283 284 284 284 284 283 284 283 284 285 286 288 289 290
261 262 260 253 249 251 259 262 258 256 257 257 255 254 254 254 254 255 258 264 270 275 282 285 291 299 306 319 330 337 341 344 346 351 354 358 2 360 357 358 1 5 4 3 1 357 354 354 356 357 354 351 347 344 340 337 334 330 326 321 316 310 304 299 294 291 291 291 290 287 287 288 287 286 286 286 285 284 285 286 287 288 289 290 289
258 259 256 251 250 254 258 257 253 252 254 255 253 253 252 252 253 253 256 260 266 272 277 280 288 294 302 316 327 336 340 343 347 352 356 360 3 1 358 355 355 356 357 0 1 357 353 352 354 355 354 351 348 346 342 337 334 332 329 324 319 315 309 304 298 294 293 294 293 292 292 291 291 290 288 287 287 286 285 285 285 286 286 287 287
256 257 256 254 253 254 255 251 249 251 252 253 253 253 252 252 251 252 254 256 262 268 272 276 284 291 299 311 323 334 339 343 347 353 356 0 2 0 358 353 351 350 352 356 358 358 353 352 352 353 353 351 347 344 342 338 333 332 331 328 322 318 314 308 304 300 297 296 295 296 294 292 291 290 288 287 287 288 287 288 287 286 284 283 283
254 255 256 254 252 251 249 246 247 250 252 253 254 255 253 252 251 251 251 253 257 261 265 272 280 287 297 305 316 331 338 343 348 352 355 358 0 359 356 353 348 346 349 353 355 355 354 353 352 351 352 351 346 342 340 339 335 331 329 328 324 320 318 314 310 304 301 298 295 296 296 294 291 289 287 285 284 286 288 289 289 288 285 282 280
252 252 253 253 250 247 245 244 246 250 252 256 257 256 255 252 250 250 249 249 249 253 260 268 278 283 291 300 310 329 337 342 348 350 352 354 355 355 354 352 346 343 347 351 352 353 353 353 352 352 351 350 346 342 338 336 335 330 327 328 324 318 315 317 316 310 306 301 296 295 296 295 294 291 287 284 282 283 285 286 287 286 284 281 277
252 250 250 250 247 245 244 243 245 250 252 256 258 257 254 252 249 247 246 244 243 247 257 265 274 280 285 297 308 327 336 341 348 347 347 348 349 352 354 351 343 342 346 349 351 351 351 351 351 350 350 349 345 342 338 334 333 331 328 326 323 317 312 315 316 313 311 305 298 294 293 295 296 294 290 285 282 281 283 285 287 286 284 281 277
252 249 248 247 245 243 242 242 244 248 250 253 256 256 255 252 248 246 243 240 240 244 253 262 271 280 287 297 308 322 330 337 346 345 345 343 346 352 354 350 341 340 343 347 349 349 349 349 348 346 347 347 344 340 336 333 331 330 328 325 321 319 316 314 311 311 313 309 304 299 295 295 296 296 294 290 285 282 284 288 289 289 286 283 280
250 249 247 245 243 241 240 242 244 246 249 251 253 255 255 252 248 245 242 239 240 244 248 258 268 277 285 292 300 311 320 331 340 343 344 341 346 354 356 348 338 336 337 341 344 346 346 345 345 343 342 343 342 338 333 329 327 326 326 324 321 319 316 314 311 311 313 312 310 307 301 298 297 296 296 292 289 286 287 291 293 293 290 287 284
248 247 245 244 242 240 241 242 244 246 247 249 252 254 254 253 249 244 241 239 238 242 245 254 264 269 276 284 290 300 311 324 334 340 341 339 343 348 352 345 335 333 331 333 338 342 342 341 341 340 339 339 340 340 335 329 325 323 322 320 318 316 313 313 314 310 307 308 311 312 306 301 297 294 295 293 291 289 289 293 295 295 294 291 289
246 245 244 242 241 240 241 242 244 245 245 247 250 253 255 252 248 242 239 239 238 240 244 251 259 264 269 277 283 292 303 316 328 334 333 332 334 336 341 341 335 332 328 328 332 336 337 338 338 338 338 338 340 342 339 334 328 324 321 318 316 315 314 314 314 306 301 301 305 310 309 303 298 293 292 292 291 290 290 294 296 297 297 295 294
247 246 244 242 241 240 241 243 243 243 244 246 249 251 254 252 246 241 239 238 238 239 243 249 254 259 264 270 278 287 297 310 321 326 329 327 324 326 329 333 333 330 326 323 324 329 332 334 336 336 337 338 339 340 340 337 333 329 324 321 319 317 315 313 311 305 304 303 302 305 309 306 299 292 290 290 290 290 290 293 295 296 297 297 296
249 246 245 242 240 240 241 243 243 242 243 244 247 249 252 252 245 239 238 239 239 240 242 246 250 254 259 265 273 282 293 304 314 322 327 325 323 324 324 323 326 326 325 322 321 325 328 332 333 332 334 335 335 335 336 335 333 331 327 325 322 321 319 315 312 307 306 306 302 298 301 305 301 292 288 287 287 287 288 290 292 294 295 296 297
249 247 245 243 241 241 242 243 243 243 244 245 245 248 250 250 246 240 239 239 239 240 241 244 247 251 256 262 269 279 290 300 309 320 324 324 323 321 319 317 318 320 320 319 320 321 324 328 329 327 329 331 331 331 332 332 331 329 327 326 324 322 321 319 316 310 304 303 301 294 291 298 300 294 288 285 283 282 284 285 287 291 293 294 295
249 248 247 245 244 244 244 244 244 245 246 246 245 245 248 248 246 243 241 240 239 238 239 242 246 249 254 260 267 276 286 296 304 315 320 321 320 315 315 315 314 316 316 316 319 319 320 325 326 323 324 327 329 329 330 330 330 329 327 324 323 322 320 320 318 313 304 297 298 296 291 293 296 294 289 284 280 278 279 281 284 289 292 292 291
248 248 247 247 248 247 246 246 247 249 249 248 245 244 245 247 246 244 241 239 238 238 239 241 245 248 252 258 266 274 283 293 301 309 314 317 318 316 317 315 313 315 313 313 316 317 317 320 320 318 319 323 326 328 328 328 328 329 328 323 321 320 317 318 319 316 310 299 295 296 295 295 295 294 290 286 280 275 273 275 280 288 292 292 289
248 248 248 248 248 247 247 248 248 250 251 249 246 244 244 246 246 243 240 238 237 237 239 241 244 246 250 257 264 272 280 289 296 302 307 313 316 317 318 315 313 313 311 312 313 312 313 314 314 314 317 320 321 324 325 327 326 325 326 322 318 318 317 318 318 317 314 305 297 294 294 296 296 294 290 283 276 272 268 267 273 281 290 292 289
249 248 247 246 247 247 247 248 250 251 251 249 245 243 243 244 244 242 239 238 237 237 239 241 243 246 251 257 263 269 277 284 290 296 302 309 313 315 316 314 312 311 309 309 307 307 308 310 312 314 317 319 319 321 323 325 326 324 324 323 318 317 318 318 318 316 315 310 302 296 294 294 295 296 294 282 271 268 265 262 265 271 282 288 287
248 247 246 246 245 245 246 247 249 250 249 247 244 242 242 243 242 241 239 238 238 237 238 241 243 247 251 256 262 268 275 280 284 290 298 304 310 314 315 314 311 307 305 304 303 304 305 307 311 314 316 318 319 320 322 323 324 323 323 324 321 318 318 317 315 314 314 312 306 302 299 296 295 296 295 287 273 267 263 261 262 264 271 281 284
245 246 246 246 245 244 245 246 247 247 245 243 241 240 241 241 241 240 239 238 238 237 238 240 242 246 250 254 260 265 270 275 280 286 293 300 306 311 314 315 313 309 305 302 302 303 304 306 309 312 313 314 316 318 320 321 320 321 321 323 323 320 318 316 313 311 311 311 308 307 305 300 297 295 293 291 280 269 263 259 259 262 266 272 279
242 244 245 244 244 243 243 244 244 243 242 241 240 240 240 241 240 239 237 237 237 237 237 239 242 245 249 253 257 262 266 270 276 282 289 296 304 310 315 317 316 314 311 307 305 304 304 306 307 310 311 312 315 317 318 319 318 319 320 321 321 320 319 316 312 310 308 307 308 307 306 303 300 295 291 289 284 273 267 261 257 259 263 266 270
240 241 243 243 242 242 242 242 241 240 239 239 239 239 240 240 239 238 236 236 236 236 237 238 241 243 247 251 255 259 263 268 273 277 284 293 301 310 314 317 318 317 315 311 308 306 305 304 306 308 310 312 314 316 318 318 317 317 318 319 319 319 318 316 313 309 305 304 305 304 303 302 299 295 291 287 285 277 270 264 258 256 259 261 263
240 240 241 241 241 241 241 241 239 237 237 237 237 237 238 238 238 236 235 235 235 236 237 238 239 241 244 249 253 257 261 267 271 274 281 290 298 307 313 317 319 319 318 315 311 308 305 304 305 306 308 310 312 315 317 317 316 317 317 318 318 317 317 317 315 311 306 302 301 300 300 299 296 294 291 287 285 281 272 265 261 259 257 258 260
239 239 239 239 239 239 240 239 237 237 236 235 234 234 234 235 235 234 233 235 236 236 237 237 238 240 244 248 252 255 260 265 269 272 278 285 293 304 313 318 320 321 320 318 314 310 307 304 303 303 305 307 310 313 315 315 316 316 317 317 316 315 316 317 315 313 310 305 299 297 296 295 294 293 291 287 284 282 277 270 265 263 260 257 258
237 237 238 238 238 239 239 237 236 236 235 232 231 230 231 231 230 231 232 233 234 235 235 235 236 239 243 247 251 254 260 264 266 270 274 281 291 302 311 316 319 322 322 320 316 311 307 304 302 302 303 305 308 311 313 314 314 315 316 316 315 314 314 315 314 312 311 307 302 297 293 291 291 291 289 286 282 279 278 275 269 266 262 258 257
236 236 236 237 237 238 238 237 236 234 234 234 232 229 228 228 228 229 230 230 231 233 233 233 235 238 242 245 249 253 258 262 265 269 274 281 290 299 306 313 317 321 321 320 317 312 308 304 302 302 303 304 307 310 313 313 314 314 315 315 314 313 313 313 312 312 310 307 304 300 295 291 288 288 287 284 281 278 277 275 272 267 259 255 256
234 234 235 237 237 238 238 237 236 234 237 241 240 233 227 226 228 227 225 226 228 229 230 232 235 238 241 244 247 252 257 261 265 269 276 283 290 296 302 308 313 317 319 320 318 314 309 305 303 303 303 304 306 310 312 312 313 313 313 313 313 313 313 311 311 311 309 306 305 302 298 293 287 285 285 283 279 277 275 273 272 267 256 252 254
233 233 235 238 239 241 242 242 241 237 238 243 244 239 230 224 223 220 222 226 227 229 231 233 235 237 240 243 247 251 256 261 267 272 279 285 290 294 298 302 307 312 317 318 318 316 311 307 303 302 303 304 306 309 310 311 311 311 311 312 312 313 313 311 310 309 307 305 304 302 298 294 288 284 282 281 278 275 273 271 270 264 254 254 255
230 229 232 237 240 244 247 250 251 246 241 241 241 237 231 225 220 218 224 227 227 229 231 232 234 237 239 242 247 252 257 262 269 275 280 285 290 293 295 298 303 308 312 314 315 314 312 309 305 303 303 303 305 308 310 311 311 311 312 313 313 313 312 311 310 308 306 304 302 301 298 294 290 286 282 278 276 274 272 269 266 260 254 255 253
228 229 232 238 241 242 243 244 247 249 244 241 238 234 231 228 222 220 226 227 228 230 230 232 234 236 238 242 247 253 259 265 271 276 281 285 288 290 293 295 299 304 308 310 311 312 312 310 307 305 304 304 306 308 310 311 312 312 313 314 314 313 312 311 310 308 306 304 302 301 297 294 291 288 282 277 273 272 271 268 264 260 256 254 250
232 234 235 240 242 241 240 237 237 239 240 238 237 236 234 229 222 222 229 230 231 231 231 233 233 235 239 243 248 254 261 268 273 277 281 283 285 286 289 292 296 300 304 307 309 310 311 310 308 306 305 305 307 309 311 312 312 312 312 314 315 314 314 313 311 309 307 304 303 302 297 292 289 286 282 277 273 271 268 266 264 261 257 254 251
239 237 234 238 242 239 235 235 232 232 236 234 234 235 231 225 223 227 231 231 232 232 232 233 233 235 239 244 250 257 264 269 273 276 278 281 283 284 287 289 293 296 300 304 307 309 309 308 306 305 304 305 307 309 311 312 313 313 313 314 316 316 315 313 311 310 309 306 304 302 297 292 287 284 281 274 270 267 265 264 263 260 257 254 253
246 241 237 238 240 236 231 234 234 236 240 236 233 232 226 220 222 228 229 229 232 233 232 232 233 236 241 246 254 261 266 269 272 275 277 278 280 282 284 287 289 293 297 301 304 305 306 306 305 304 304 305 307 310 311 312 313 313 314 315 316 317 316 315 313 312 312 309 306 301 296 292 287 284 280 272 267 264 262 263 262 261 259 254 252
249 245 240 239 239 236 235 239 241 243 242 236 229 221 213 213 218 224 228 232 234 234 233 234 236 241 246 251 257 263 267 271 273 275 277 279 280 282 283 285 288 291 295 298 300 302 303 303 303 303 302 303 306 309 311 312 313 313 314 315 317 318 318 316 314 313 313 311 308 301 295 291 286 283 278 271 267 264 260 259 258 259 259 255 251
250 248 242 239 239 237 238 242 246 246 237 224 214 205 206 216 222 225 230 234 234 234 234 236 239 244 248 253 258 264 269 272 274 277 280 282 284 285 285 287 288 291 293 296 298 299 301 301 301 301 300 301 303 307 310 311 312 313 314 316 318 319 319 317 314 312 311 310 310 304 295 290 286 283 279 271 266 265 262 258 255 256 256 254 252
Height
5878 5878 5878 5877 5877 5877 5876 5876 5876 5875 5874 5873 5871 5870 5869 5868 5867 5867 5866 5866 5866 5865 5864 5863 5862 5861 5860 5859 5858 5856 5855 5854 5852 5851 5849 5848 5846 5845 5844 5843 5843 5842 5842 5841 5840 5839 5839 5838 5838 5837 5836 5835 5835 5834 5833 5833 5832 5831 5831 5830 5830 5829 5829 5828 5828 5827 5827 5827 5827 5827 5827 5827 5827 5827 5827 5826 5826 5826 5827 5827 5827 5827 5828 5827 5828
5877 5877 5877 5876 5876 5876 5876 5875 5875 5874 5873 5872 5870 5869 5868 5867 5866 5866 5866 5866 5865 5865 5864 5863 5862 5861 5860 5859 5858 5856 5855 5854 5852 5851 5849 5848 5846 5845 5844 5843 5843 5842 5842 5841 5840 5839 5839 5838 5838 5837 5836 5835 5835 5834 5834 5833 5832 5832 5831 5831 5830 5830 5829 5829 5828 5828 5828 5828 5828 5827 5827 5827 5827 5827 5827 5827 5826 5826 5827 5827 5827 5827 5828 5828 5828
5876 5876 5876 5875 5875 5875 5875 5875 5874 5873 5872 5871 5870 5869 5868 5867 5866 5865 5865 5865 5865 5864 5864 5863 5862 5861 5860 5859 5858 5856 5855 5854 5852 5851 5849 5848 5847 5846 5845 5844 5843 5842 5842 5841 5840 5839 5839 5838 5838 5837 5836 5836 5835 5834 5834 5833 5833 5832 5831 5831 5830 5830 5829 5829 5828 5828 5828 5828 5828 5828 5827 5827 5828 5827 5827 5827 5826 5826 5827 5827 5827 5828 5828 5828 5828
5875 5875 5875 5875 5875 5875 5874 5874 5873 5872 5871 5870 5869 5868 5867 5866 5865 5865 5864 5865 5864 5864 5863 5863 5862 5861 5860 5859 5858 5856 5855 5854 5852 5851 5849 5848 5847 5846 5845 5844 5843 5842 5841 5841 5840 5839 5838 5838 5837 5837 5836 5836 5835 5835 5834 5834 5833 5832 5832 5831 5831 5830 5830 5829 5829 5828 5828 5828 5828 5828 5828 5828 5828 5827 5827 5827 5827 5827 5827 5827 5827 5828 5828 5828 5828
5874 5874 5874 5874 5874 5874 5873 5873 5872 5871 5871 5869 5868 5867 5866 5865 5865 5864 5864 5864 5864 5863 5863 5862 5861 5861 5860 5859 5858 5856 5855 5854 5852 5851 5849 5848 5847 5846 5845 5844 5843 5842 5841 5841 5840 5839 5838 5838 5837 5837 5836 5836 5835 5835 5834 5834 5833 5833 5832 5832 5831 5831 5830 5829 5829 5828 5828 5828 5828 5828 5828 5828 5828 5827 5827 5827 5827 5827 5827 5828 5828 5828 5828 5828 5829
5872 5872 5872 5873 5872 5873 5872 5872 5872 5870 5870 5868 5867 5866 5866 5865 5864 5864 5863 5863 5863 5863 5862 5862 5861 5861 5860 5859 5858 5856 5855 5854 5852 5851 5850 5848 5847 5846 5845 5844 5843 5842 5841 5840 5840 5839 5838 5837 5837 5837 5836 5836 5836 5835 5834 5834 5833 5833 5832 5832 5831 5831 5830 5830 5829 5828 5828 5827 5827 5827 5828 5828 5828 5828 5827 5827 5827 5828 5828 5828 5828 5828 5828 5829 5829
5870 5871 5871 5871 5871 5871 5871 5871 5870 5869 5869 5867 5866 5866 5865 5864 5864 5863 5863 5863 5863 5862 5862 5861 5861 5860 5860 5859 5858 5856 5855 5854 5852 5851 5850 5848 5847 5846 5845 5844 5843 5842 5841 5840 5840 5839 5838 5837 5837 5836 5836 5836 5836 5835 5834 5834 5833 5833 5832 5832 5831 5831 5831 5830 5829 5828 5828 5827 5827 5827 5827 5828 5828 5827 5827 5827 5827 5827 5828 5828 5828 5828 5829 5829 5829
5869 5870 5870 5870 5870 5870 5870 5870 5869 5868 5868 5867 5866 5865 5864 5864 5863 5863 5862 5862 5862 5862 5861 5861 5861 5860 5860 5858 5857 5856 5855 5854 5852 5851 5850 5848 5847 5846 5845 5844 5843 5842 5841 5840 5839 5839 5838 5837 5836 5836 5836 5836 5835 5835 5834 5834 5833 5833 5832 5832 5831 5831 5831 5830 5829 5828 5828 5827 5827 5827 5827 5828 5827 5827 5827 5827 5827 5827 5827 5828 5828 5828 5829 5829 5829
5867 5868 5868 5868 5868 5868 5868 5868 5868 5867 5866 5865 5865 5864 5863 5863 5862 5862 5862 5862 5862 5861 5861 5861 5860 5860 5859 5858 5857 5856 5855 5854 5852 5851 5849 5848 5847 5846 5845 5844 5843 5841 5840 5840 5839 5839 5838 5837 5837 5836 5835 5835 5835 5834 5834 5834 5833 5833 5832 5832 5831 5831 5831 5830 5830 5829 5828 5827 5827 5827 5827 5827 5827 5827 5827 5827 5827 5827 5827 5827 5828 5828 5828 5828 5829
5866 5866 5866 5866 5866 5866 5867 5867 5867 5866 5865 5864 5864 5863 5862 5862 5861 5861 5861 5861 5861 5861 5861 5860 5860 5860 5859 5858 5857 5856 5855 5854 5852 5851 5849 5848 5847 5846 5845 5844 5842 5841 5840 5839 5839 5838 5838 5837 5836 5836 5835 5835 5834 5834 5833 5833 5833 5833 5832 5832 5831 5831 5830 5830 5830 5829 5828 5827 5827 5826 5826 5826 5827 5827 5827 5827 5827 5827 5827 5827 5827 5827 5828 5828 5828
5864 5864 5864 5865 5865 5865 5865 5865 5865 5864 5864 5863 5862 5862 5861 5861 5861 5860 5860 5861 5860 5860 5860 5860 5860 5860 5859 5858 5857 5856 5855 5854 5852 5851 5849 5848 5847 5846 5845 5844 5842 5841 5840 5839 5839 5838 5838 5837 5836 5836 5835 5834 5834 5833 5833 5833 5832 5832 5832 5831 5831 5830 5830 5830 5829 5829 5828 5828 5827 5826 5826 5826 5826 5826 5827 5827 5827 5827 5827 5827 5827 5827 5827 5827 5827
5863 5863 5863 5863 5863 5863 5863 5864 5863 5863 5863 5862 5861 5861 5860 5860 5860 5860 5860 5860 5860 5860 5860 5860 5860 5859 5859 5858 5857 5856 5855 5853 5852 5851 5849 5848 5847 5846 5845 5844 5842 5841 5840 5839 5838 5838 5837 5837 5836 5835 5835 5834 5833 5833 5833 5832 5832 5831 5831 5831 5830 5830 5829 5829 5829 5828 5828 5828 5827 5827 5826 5826 5826 5826 5826 5826 5826 5826 5826 5826 5826 5826 5826 5826 5826
5861 5861 5861 5861 5862 5862 5862 5862 5862 5862 5861 5861 5860 5860 5860 5859 5859 5859 5859 5860 5859 5859 5859 5859 5859 5859 5859 5858 5857 5856 5855 5853 5852 5850 5849 5848 5847 5846 5845 5844 5842 5841 5840 5839 5838 5838 5837 5837 5836 5835 5835 5834 5833 5833 5832 5832 5831 5831 5830 5830 5830 5829 5829 5828 5828 5828 5828 5827 5827 5827 5826 5826 5826 5826 5826 5826 5826 5826 5826 5826 5826 5826 5826 5825 5825
5860 5859 5860 5860 5860 5860 5860 5861 5860 5860 5860 5859 5859 5859 5859 5858 5858 5858 5859 5859 5858 5859 5859 5859 5859 5859 5858 5857 5857 5855 5855 5853 5852 5850 5849 5848 5847 5846 5845 5844 5843 5842 5841 5839 5838 5838 5837 5837 5836 5835 5835 5834 5833 5833 5832 5831 5831 5830 5830 5830 5829 5829 5829 5828 5828 5827 5827 5827 5826 5826 5826 5826 5825 5825 5825 5825 5825 5825 5825 5825 5825 5825 5825 5825 5825
5858 5858 5858 5858 5858 5859 5859 5859 5859 5859 5859 5858 5858 5858 5858 5857 5857 5858 5858 5858 5858 5858 5858 5858 5858 5858 5858 5857 5857 5855 5854 5853 5851 5850 5849 5848 5847 5846 5845 5844 5843 5842 5841 5840 5839 5838 5838 5837 5836 5835 5834 5834 5833 5832 5832 5831 5831 5830 5829 5829 5829 5829 5828 5828 5828 5827 5827 5826 5826 5826 5825 5825 5825 5825 5824 5824 5824 5824 5824 5824 5824 5824 5824 5824 5824
5856 5856 5856 5857 5857 5857 5858 5858 5858 5858 5857 5857 5857 5857 5856 5856 5857 5857 5857 5857 5857 5858 5858 5858 5858 5858 5858 5857 5856 5855 5854 5853 5851 5850 5849 5848 5846 5845 5845 5844 5843 5842 5841 5840 5839 5838 5838 5837 5836 5835 5834 5833 5833 5832 5832 5831 5831 5830 5829 5829 5828 5828 5827 5827 5827 5827 5826 5826 5826 5825 5825 5825 5825 5824 5824 5824 5824 5824 5824 5824 5824 5824 5824 5824 5824
5854 5855 5855 5855 5856 5856 5856 5856 5857 5856 5856 5856 5856 5856 5856 5856 5856 5856 5856 5856 5857 5857 5857 5857 5857 5857 5857 5857 5856 5855 5854 5852 5851 5850 5849 5848 5846 5845 5844 5844 5843 5842 5842 5841 5840 5838 5838 5837 5836 5835 5834 5833 5833 5832 5831 5831 5831 5830 5829 5829 5828 5827 5827 5826 5826 5826 5826 5825 5825 5825 5824 5824 5824 5824 5824 5823 5823 5823 5823 5823 5823 5823 5823 5823 5823
5853 5853 5853 5854 5854 5855 5855 5855 5855 5855 5855 5855 5855 5855 5855 5855 5855 5855 5856 5856 5856 5856 5857 5857 5857 5856 5857 5856 5856 5855 5854 5852 5851 5849 5848 5847 5847 5845 5844 5843 5842 5842 5842 5841 5840 5839 5838 5837 5836 5835 5834 5833 5832 5832 5831 5831 5830 5830 5829 5828 5828 5827 5826 5826 5826 5825 5825 5824 5824 5824 5824 5824 5824 5824 5823 5823 5823 5823 5823 5823 5823 5822 5822 5822 5822
5852 5852 5852 5853 5853 5853 5854 5854 5854 5854 5854 5854 5854 5854 5854 5854 5854 5855 5855 5855 5855 5856 5856 5856 5856 5856 5856 5856 5856 5855 5854 5852 5851 5849 5848 5847 5846 5845 5844 5843 5842 5841 5841 5841 5840 5839 5838 5837 5836 5835 5834 5833 5832 5831 5831 5830 5830 5829 5829 5828 5827 5826 5826 5825 5825 5825 5824 5824 5824 5823 5823 5823 5823 5823 5823 5823 5822 5822 5822 5822 5822 5822 5822 5821 5821
5850 5850 5850 5851 5852 5852 5852 5852 5852 5853 5853 5853 5853 5853 5853 5853 5853 5854 5854 5854 5855 5855 5855 5855 5855 5855 5855 5855 5855 5854 5853 5852 5851 5849 5848 5847 5846 5845 5844 5843 5842 5840 5840 5840 5839 5839 5838 5836 5836 5835 5834 5833 5832 5831 5830 5830 5829 5828 5828 5827 5827 5826 5825 5825 5824 5824 5824 5824 5823 5823 5823 5823 5823 5822 5822 5822 5822 5821 5821 5821 5821 5821 5821 5820 5820
5848 5849 5849 5850 5850 5850 5851 5851 5851 5851 5852 5852 5852 5852 5852 5852 5852 5853 5853 5854 5854 5854 5854 5854 5854 5854 5855 5855 5854 5854 5853 5852 5850 5849 5848 5847 5846 5845 5844 5843 5842 5840 5839 5839 5838 5838 5837 5836 5835 5834 5834 5833 5832 5831 5830 5829 5828 5828 5827 5827 5826 5825 5825 5824 5824 5823 5823 5823 5823 5823 5822 5822 5822 5822 5821 5821 5821 5821 5820 5820 5820 5820 5819 5819 5819
5847 5847 5848 5848 5849 5849 5849 5849 5850 5850 5850 5850 5851 5851 5851 5851 5851 5852 5852 5853 5853 5853 5853 5853 5853 5854 5854 5854 5854 5853 5853 5852 5850 5849 5848 5847 5846 5845 5845 5844 5842 5841 5840 5838 5837 5837 5836 5836 5835 5834 5834 5833 5832 5831 5830 5829 5828 5827 5827 5826 5825 5825 5824 5824 5823 5823 5822 5822 5822 5822 5822 5821 5821 5821 5820 5820 5820 5819 5819 5819 5819 5818 5818 5818 5817
5845 5846 5846 5847 5847 5847 5847 5848 5848 5848 5849 5849 5849 5850 5850 5850 5850 5851 5851 5852 5852 5852 5852 5852 5853 5853 5853 5853 5852 5853 5852 5851 5850 5849 5848 5847 5846 5845 5845 5844 5843 5841 5840 5839 5837 5836 5835 5835 5834 5834 5833 5833 5832 5831 5830 5829 5828 5827 5826 5826 5825 5824 5824 5823 5823 5822 5822 5822 5821 5821 5821 5821 5820 5820 5820 5819 5819 5818 5818 5818 5817 5817 5817 5816 5816
5843 5844 5845 5845 5845 5846 5846 5846 5846 5847 5847 5848 5848 5849 5849 5849 5849 5850 5850 5850 5851 5851 5851 5851 5851 5851 5852 5852 5851 5852 5851 5850 5850 5848 5847 5846 5846 5846 5845 5844 5843 5842 5841 5839 5838 5836 5835 5834 5833 5833 5833 5833 5832 5831 5830 5829 5828 5827 5826 5825 5825 5824 5823 5823 5822 5821 5821 5821 5820 5820 5820 5819 5819 5819 5819 5818 5818 5818 5817 5817 5816 5816 5816 5815 5815
5842 5842 5843 5843 5844 5844 5844 5844 5845 5845 5846 5847 5847 5847 5848 5848 5848 5849 5849 5849 5849 5850 5850 5850 5850 5850 5851 5851 5851 5851 5850 5850 5849 5848 5847 5846 5846 5846 5845 5844 5843 5842 5841 5840 5839 5837 5836 5834 5833 5832 5831 5832 5831 5831 5830 5829 5828 5827 5826 5825 5824 5824 5823 5822 5821 5821 5820 5819 5819 5818 5818 5818 5818 5818 5818 5817 5817 5817 5816 5816 5815 5815 5815 5814 5814
5840 5841 5841 5841 5842 5842 5842 5843 5844 5844 5845 5845 5846 5846 5846 5847 5847 5848 5847 5848 5848 5849 5849 5849 5849 5849 5850 5850 5850 5850 5849 5849 5848 5848 5847 5846 5846 5845 5845 5844 5843 5842 5841 5840 5839 5838 5836 5835 5833 5832 5830 5830 5830 5830 5829 5829 5827 5826 5826 5825 5824 5823 5822 5821 5820 5820 5819 5818 5818 5817 5817 5817 5817 5817 5816 5816 5816 5815 5815 5814 5814 5814 5813 5813 5813
5838 5839 5839 5840 5840 5840 5841 5842 5842 5843 5843 5844 5845 5845 5845 5846 5846 5846 5846 5846 5847 5847 5848 5848 5848 5848 5849 5849 5849 5849 5848 5848 5847 5847 5847 5846 5846 5845 5844 5843 5843 5842 5841 5840 5839 5838 5837 5835 5834 5832 5830 5829 5829 5828 5828 5827 5827 5826 5825 5824 5823 5822 5822 5821 5820 5819 5818 5817 5817 5816 5816 5816 5816 5815 5815 5815 5815 5814 5814 5813 5813 5812 5812 5812 5812
5836 5837 5837 5838 5838 5839 5839 5840 5841 5841 5842 5843 5843 5844 5844 5845 5845 5845 5845 5845 5846 5846 5847 5847 5847 5847 5848 5848 5848 5848 5847 5847 5846 5846 5846 5845 5845 5844 5844 5843 5842 5841 5841 5840 5839 5838 5837 5836 5834 5832 5831 5829 5828 5827 5827 5826 5825 5825 5824 5823 5822 5821 5820 5820 5819 5818 5817 5816 5816 5815 5815 5815 5814 5814 5814 5813 5813 5813 5813 5812 5811 5811 5811 5811 5811
5835 5835 5836 5836 5837 5837 5838 5838 5839 5840 5841 5841 5842 5843 5843 5843 5843 5843 5843 5844 5844 5845 5845 5845 5846 5846 5846 5847 5847 5846 5846 5846 5845 5845 5845 5844 5844 5843 5843 5842 5842 5841 5840 5839 5839 5838 5837 5836 5834 5833 5831 5829 5828 5827 5826 5825 5824 5823 5822 5821 5820 5819 5819 5818 5818 5817 5816 5814 5814 5814 5813 5813 5813 5813 5812 5812 5812 5812 5812 5811 5810 5810 5810 5810 5810
5833 5833 5834 5835 5835 5836 5836 5837 5838 5838 5839 5840 5841 5842 5842 5842 5842 5842 5842 5842 5843 5843 5844 5844 5844 5845 5845 5846 5846 5845 5845 5844 5844 5844 5843 5843 5842 5842 5841 5841 5840 5840 5840 5839 5838 5837 5836 5835 5834 5833 5831 5830 5828 5827 5825 5824 5823 5822 5821 5820 5819 5818 5817 5817 5816 5816 5815 5813 5812 5812 5812 5812 5812 5811 5811 5811 5810 5810 5810 5810 5810 5809 5809 5809 5809
5831 5831 5833 5833 5833 5834 5835 5835 5836 5837 5838 5839 5840 5840 5840 5840 5840 5840 5841 5841 5841 5841 5842 5842 5843 5844 5844 5844 5844 5844 5844 5843 5843 5843 5842 5842 5841 5841 5840 5839 5839 5839 5838 5838 5837 5836 5836 5835 5834 5833 5831 5830 5828 5827 5825 5823 5822 5821 5820 5819 5818 5817 5815 5815 5815 5814 5814 5812 5811 5811 5810 5810 5810 5810 5810 5810 5809 5809 5809 5809 5809 5808 5808 5808 5808
5829 5830 5831 5831 5832 5832 5833 5834 5835 5836 5836 5837 5838 5838 5838 5838 5838 5838 5839 5839 5839 5840 5840 5841 5842 5842 5843 5843 5843 5843 5842 5842 5842 5842 5841 5841 5840 5839 5838 5838 5838 5837 5837 5837 5836 5835 5835 5834 5833 5832 5831 5830 5828 5826 5824 5823 5822 5820 5819 5818 5817 5816 5814 5813 5813 5812 5812 5811 5810 5809 5809 5808 5808 5808 5808 5808 5808 5808 5808 5808 5808 5808 5807 5807 5807
5827 5828 5829 5829 5830 5830 5831 5832 5833 5834 5835 5835 5836 5836 5836 5836 5836 5837 5837 5837 5837 5838 5839 5839 5840 5841 5841 5841 5842 5842 5841 5841 5841 5841 5840 5840 5839 5838 5837 5837 5836 5835 5835 5835 5835 5834 5833 5832 5832 5830 5830 5829 5827 5826 5824 5822 5821 5819 5818 5817 5816 5815 5814 5812 5811 5811 5810 5809 5808 5807 5807 5807 5807 5807 5807 5806 5806 5806 5806 5806 5806 5807 5806 5806 5806
5825 5826 5827 5827 5828 5829 5830 5830 5831 5832 5832 5833 5833 5834 5834 5834 5834 5834 5835 5835 5836 5836 5837 5838 5838 5839 5840 5840 5840 5840 5840 5840 5840 5840 5839 5839 5839 5838 5837 5836 5835 5834 5834 5833 5833 5832 5832 5831 5830 5829 5828 5828 5826 5825 5823 5822 5820 5819 5818 5817 5815 5814 5813 5812 5811 5809 5808 5808 5807 5805 5805 5806 5806 5805 5804 5804 5804 5804 5804 5804 5805 5805 5805 5805 5805
5823 5824 5825 5825 5826 5827 5828 5829 5829 5830 5830 5831 5831 5831 5831 5832 5832 5832 5833 5833 5834 5835 5835 5836 5837 5837 5838 5838 5839 5839 5839 5839 5839 5839 5838 5838 5838 5837 5836 5835 5835 5834 5833 5832 5831 5831 5830 5830 5829 5828 5827 5826 5825 5824 5823 5821 5820 5818 5817 5816 5814 5813 5812 5811 5810 5808 5807 5806 5805 5804 5803 5804 5804 5804 5802 5802 5802 5803 5803 5803 5803 5803 5804 5804 5804
5821 5821 5822 5823 5824 5825 5826 5827 5827 5827 5827 5828 5829 5829 5829 5829 5830 5830 5831 5831 5832 5833 5834 5834 5835 5836 5836 5837 5837 5837 5838 5838 5838 5837 5837 5837 5836 5835 5835 5834 5833 5832 5832 5831 5830 5829 5828 5828 5827 5826 5825 5824 5824 5823 5822 5821 5819 5817 5816 5814 5813 5812 5811 5809 5808 5807 5806 5804 5803 5803 5802 5802 5802 5802 5801 5800 5801 5801 5801 5801 5801 5801 5802 5802 5802
5818 5819 5820 5821 5822 5823 5824 5824 5824 5824 5825 5826 5826 5827 5827 5827 5827 5828 5829 5829 5830 5831 5832 5833 5833 5834 5835 5835 5836 5836 5836 5836 5836 5836 5836 5835 5835 5834 5833 5832 5832 5831 5830 5829 5828 5827 5826 5826 5825 5824 5823 5823 5822 5821 5820 5819 5818 5816 5814 5813 5812 5810 5809 5807 5806 5805 5804 5803 5802 5801 5801 5800 5799 5799 5799 5799 5799 5798 5798 5799 5799 5800 5800 5800 5801
5816 5817 5817 5819 5820 5820 5821 5821 5821 5822 5823 5824 5824 5824 5824 5824 5825 5826 5827 5827 5828 5829 5830 5831 5832 5832 5833 5833 5834 5834 5835 5835 5835 5835 5835 5834 5833 5833 5832 5831 5830 5829 5828 5827 5827 5826 5825 5824 5823 5823 5822 5821 5820 5819 5818 5817 5816 5815 5813 5812 5810 5809 5808 5806 5805 5804 5803 5802 5801 5800 5799 5798 5797 5796 5796 5796 5796 5796 5795 5796 5797 5798 5798 5798 5799
5813 5814 5815 5816 5817 5817 5818 5818 5819 5820 5821 5822 5822 5822 5822 5822 5822 5823 5824 5825 5826 5827 5828 5829 5830 5830 5831 5832 5832 5833 5833 5833 5833 5833 5833 5833 5832 5831 5831 5830 5829 5828 5827 5826 5825 5824 5823 5822 5822 5821 5820 5819 5818 5817 5816 5815 5814 5813 5811 5810 5808 5807 5806 5804 5803 5802 5801 5801 5800 5799 5797 5796 5795 5794 5794 5793 5793 5793 5793 5793 5794 5795 5795 5796 5796
5810 5811 5811 5812 5814 5814 5815 5816 5817 5818 5819 5819 5819 5819 5819 5819 5820 5821 5822 5823 5824 5826 5826 5827 5828 5829 5829 5830 5831 5831 5831 5831 5832 5832 5832 5831 5831 5830 5829 5828 5827 5826 5825 5824 5823 5822 5822 5821 5820 5819 5818 5818 5817 5816 5814 5813 5811 5810 5809 5808 5806 5805 5803 5802 5801 5799 5799 5798 5798 5796 5795 5794 5793 5793 5792 5791 5791 5791 5791 5792 5792 5792 5793 5794 5794
5806 5807 5807 5809 5811 5811 5812 5813 5814 5815 5816 5815 5815 5814 5815 5816 5817 5818 5819 5821 5822 5823 5824 5825 5826 5827 5828 5828 5829 5829 5829 5830 5830 5830 5830 5830 5829 5829 5828 5827 5826 5825 5824 5823 5822 5821 5820 5819 5818 5818 5817 5816 5815 5814 5813 5811 5809 5808 5807 5805 5804 5802 5801 5800 5798 5797 5796 5795 5795 5794 5793 5792 5791 5791 5791 5790 5789 5789 5788 5789 5790 5790 5790 5791 5791
5801 5802 5804 5807 5808 5808 5809 5810 5810 5811 5811 5811 5810 5810 5811 5812 5814 5815 5817 5819 5820 5821 5822 5823 5824 5825 5826 5827 5827 5828 5828 5828 5828 5828 5828 5828 5828 5827 5826 5825 5824 5824 5823 5822 5820 5819 5818 5817 5816 5816 5815 5814 5813 5812 5811 5809 5808 5806 5804 5803 5801 5800 5799 5797 5796 5795 5794 5792 5792 5791 5791 5790 5789 5788 5788 5787 5787 5786 5786 5786 5786 5787 5787 5788 5788
5796 5799 5802 5804 5805 5806 5807 5807 5807 5808 5810 5811 5810 5809 5809 5809 5811 5813 5815 5817 5817 5818 5820 5821 5822 5823 5824 5825 5825 5826 5826 5826 5826 5826 5827 5826 5826 5825 5825 5824 5823 5822 5821 5820 5819 5818 5817 5816 5815 5814 5813 5812 5811 5811 5810 5808 5805 5804 5802 5800 5798 5797 5795 5794 5793 5792 5790 5789 5788 5788 5787 5787 5786 5786 5785 5785 5784 5783 5783 5783 5783 5783 5784 5784 5784
5793 5798 5801 5802 5804 5805 5806 5807 5807 5808 5810 5811 5812 5812 5810 5808 5808 5811 5813 5814 5815 5817 5818 5819 5820 5821 5822 5823 5823 5824 5824 5824 5825 5825 5825 5824 5824 5824 5823 5823 5822 5821 5820 5819 5817 5816 5815 5814 5813 5812 5811 5810 5809 5809 5808 5806 5804 5802 5800 5798 5796 5794 5793 5790 5789 5789 5788 5786 5785 5784 5783 5783 5782 5782 5782 5781 5781 5780 5780 5780 5780 5781 5781 5781 5781
5793 5797 5799 5801 5803 5805 5806 5808 5809 5810 5810 5811 5812 5812 5812 5809 5807 5809 5811 5812 5814 5815 5816 5817 5819 5820 5820 5821 5822 5822 5823 5823 5823 5823 5823 5823 5822 5822 5821 5821 5820 5819 5818 5817 5816 5814 5813 5812 5811 5811 5810 5809 5807 5806 5806 5805 5803 5800 5798 5796 5794 5792 5790 5788 5786 5785 5784 5783 5782 5781 5779 5779 5778 5778 5778 5777 5777 5777 5776 5777 5777 5777 5778 5778 5778
5793 5794 5797 5799 5800 5801 5802 5804 5806 5808 5809 5809 5809 5810 5812 5810 5807 5807 5810 5811 5812 5813 5814 5816 5817 5818 5819 5819 5820 5820 5821 5821 5821 5821 5821 5821 5821 5820 5819 5819 5818 5817 5816 5815 5814 5813 5811 5810 5810 5809 5808 5807 5806 5804 5803 5802 5801 5799 5796 5794 5792 5790 5788 5786 5784 5782 5780 5779 5778 5777 5776 5775 5774 5774 5774 5774 5774 5773 5773 5773 5774 5774 5775 5775 5776
5791 5793 5795 5795 5796 5797 5799 5799 5800 5802 5803 5805 5807 5808 5810 5810 5807 5807 5809 5809 5810 5812 5813 5814 5815 5816 5817 5818 5818 5819 5819 5819 5819 5819 5819 5819 5819 5818 5818 5817 5816 5815 5814 5813 5812 5811 5810 5809 5808 5807 5806 5805 5804 5802 5801 5799 5798 5796 5795 5793 5790 5788 5785 5783 5781 5779 5777 5776 5774 5773 5772 5772 5770 5770 5770 5770 5770 5770 5769 5769 5770 5770 5771 5772 5773
5790 5791 5792 5791 5793 5795 5796 5797 5797 5798 5799 5802 5804 5805 5807 5807 5806 5806 5808 5808 5809 5810 5811 5813 5814 5815 5816 5816 5817 5817 5817 5817 5818 5818 5817 5817 5817 5816 5816 5815 5814 5813 5812 5811 5810 5809 5808 5807 5805 5804 5804 5803 5802 5801 5799 5797 5795 5794 5792 5790 5788 5785 5783 5781 5778 5776 5774 5773 5771 5769 5768 5767 5766 5765 5766 5766 5765 5765 5766 5766 5766 5766 5767 5768 5769
5787 5787 5787 5789 5791 5793 5795 5796 5796 5797 5797 5799 5801 5803 5804 5804 5803 5804 5806 5806 5807 5809 5810 5811 5812 5813 5814 5815 5815 5816 5816 5816 5816 5816 5816 5816 5815 5815 5814 5813 5813 5812 5811 5810 5809 5807 5806 5805 5804 5802 5801 5800 5799 5798 5797 5795 5793 5791 5789 5787 5785 5783 5780 5778 5775 5773 5771 5769 5768 5766 5763 5762 5761 5761 5761 5760 5760 5761 5761 5762 5762 5762 5763 5764 5766
5783 5784 5787 5789 5791 5793 5794 5794 5795 5796 5796 5798 5799 5801 5802 5800 5799 5802 5803 5805 5806 5807 5809 5810 5811 5812 5813 5814 5814 5814 5814 5815 5814 5814 5814 5814 5813 5813 5812 5812 5811 5810 5809 5808 5807 5805 5804 5803 5802 5800 5799 5798 5797 5796 5794 5792 5791 5788 5786 5784 5783 5780 5778 5775 5772 5770 5768 5766 5764 5762 5760 5758 5757 5756 5757 5756 5755 5756 5757 5758 5759 5759 5759 5760 5762
5782 5785 5788 5789 5790 5791 5792 5792 5794 5794 5795 5796 5797 5799 5798 5795 5797 5800 5801 5803 5805 5806 5808 5809 5810 5811 5812 5812 5813 5813 5813 5813 5813 5812 5812 5812 5811 5811 5810 5809 5808 5807 5806 5806 5805 5803 5802 5801 5800 5798 5797 5796 5795 5794 5792 5790 5788 5786 5784 5782 5780 5778 5775 5773 5770 5767 5765 5763 5760 5759 5756 5754 5753 5751 5752 5752 5751 5752 5754 5755 5756 5755 5755 5757 5758